Location: Chervonnoye
(48.6000°N, 34.4000°E)
Time: 16:16:33
(UTC+00:00)

UKube-1 - Pass Details

Date: 28 November 2021
Orbit: 610 x 618 km, 98.4° (Epoch: 20 January)

Event Time Altitude Azimuth Distance (km) Brightness Sun altitude
Rises 03:52:15 0° 104° (ESE) 2,891 ? -12.4°
Reaches altitude 10° 03:56:33 10° 62° (ENE) 1,992 ? -11.7°
Maximum altitude 03:57:09 10° 54° (NE) 1,975 ? -11.6°
Drops below altitude 10° 03:57:46 10° 46° (NE) 1,994 ? -11.5°
Sets 04:02:04 0° 5° (N) 2,906 ? -10.8°
